Time,TemperatureF,DewpointF,PressureIn,WindDirection,WindDirectionDegrees,WindSpeedMPH,WindSpeedGustMPH,Humidity,HourlyPrecipIn,Conditions,Clouds,dailyrainin,SolarRadiationWatts/m^2,SoftwareType,DateUTC
2013-11-28 00:22:00,17.0,14.0,-100.00,SSE,150,3.0,7.0,86,0.00,,,0.00,0.000000,,2013-11-28 06:22:00,
2013-11-28 00:33:00,17.0,14.0,-100.00,SSE,150,3.0,7.0,86,0.00,,,0.00,0.000000,,2013-11-28 06:33:00,
2013-11-28 00:42:00,17.0,14.0,-100.00,SSE,150,3.0,7.0,86,0.00,,,0.00,0.000000,,2013-11-28 06:42:00,
2013-11-28 00:52:00,17.0,14.0,-100.00,SSE,150,3.0,7.0,86,0.00,,,0.00,0.000000,,2013-11-28 06:52:00,
2013-11-28 01:01:00,17.0,14.0,-100.00,SSE,150,3.0,7.0,86,0.00,,,0.00,0.000000,,2013-11-28 07:01:00,
2013-11-28 01:02:00,17.0,14.0,-100.00,SSE,149,3.0,7.0,87,0.00,,,0.00,0.000000,,2013-11-28 07:02:00,
2013-11-28 01:22:00,17.0,14.0,-100.00,SSE,149,3.0,7.0,87,0.00,,,0.00,0.000000,,2013-11-28 07:22:00,
2013-11-28 01:32:00,17.0,14.0,-100.00,SSE,149,3.0,7.0,87,0.00,,,0.00,0.000000,,2013-11-28 07:32:00,
2013-11-28 01:42:00,17.0,14.0,-100.00,SSE,149,3.0,7.0,87,0.00,,,0.00,0.000000,,2013-11-28 07:42:00,
2013-11-28 01:52:00,17.0,14.0,-100.00,SSE,149,3.0,7.0,87,0.00,,,0.00,0.000000,,2013-11-28 07:52:00,
2013-11-28 02:02:00,17.0,14.0,-100.00,SE,136,3.0,6.0,87,0.00,,,0.00,0.000000,,2013-11-28 08:02:00,
2013-11-28 02:22:00,17.0,14.0,-100.00,SE,136,3.0,6.0,87,0.00,,,0.00,0.000000,,2013-11-28 08:22:00,
2013-11-28 02:32:00,17.0,14.0,-100.00,SE,136,3.0,6.0,87,0.00,,,0.00,0.000000,,2013-11-28 08:32:00,
2013-11-28 02:42:00,17.0,14.0,-100.00,SE,136,3.0,6.0,87,0.00,,,0.00,0.000000,,2013-11-28 08:42:00,
2013-11-28 02:53:00,17.0,14.0,-100.00,SE,136,3.0,6.0,87,0.00,,,0.00,0.000000,,2013-11-28 08:53:00,
2013-11-28 03:02:00,16.0,13.0,-100.00,NE,53,0.0,4.0,88,0.00,,,0.00,0.000000,,2013-11-28 09:02:00,
2013-11-28 03:22:00,16.0,13.0,-100.00,NE,53,0.0,4.0,88,0.00,,,0.00,0.000000,,2013-11-28 09:22:00,
2013-11-28 03:33:00,16.0,13.0,-100.00,NE,53,0.0,4.0,88,0.00,,,0.00,0.000000,,2013-11-28 09:33:00,
2013-11-28 03:43:00,16.0,13.0,-100.00,NE,53,0.0,4.0,88,0.00,,,0.00,0.000000,,2013-11-28 09:43:00,
2013-11-28 03:53:00,16.0,13.0,-100.00,NE,53,0.0,4.0,88,0.00,,,0.00,0.000000,,2013-11-28 09:53:00,
2013-11-28 04:02:00,15.0,12.0,-100.00,SE,134,0.0,2.0,89,0.00,,,0.00,0.000000,,2013-11-28 10:02:00,
2013-11-28 04:23:00,15.0,12.0,-100.00,SE,134,0.0,2.0,89,0.00,,,0.00,0.000000,,2013-11-28 10:23:00,
2013-11-28 04:33:00,15.0,12.0,-100.00,SE,134,0.0,2.0,89,0.00,,,0.00,0.000000,,2013-11-28 10:33:00,
2013-11-28 04:43:00,15.0,12.0,-100.00,SE,134,0.0,2.0,89,0.00,,,0.00,0.000000,,2013-11-28 10:43:00,
2013-11-28 04:53:00,15.0,12.0,-100.00,SE,134,0.0,2.0,89,0.00,,,0.00,0.000000,,2013-11-28 10:53:00,
2013-11-28 05:02:00,15.0,12.0,-100.00,SE,124,0.0,0.0,89,0.00,,,0.00,0.000000,,2013-11-28 11:02:00,
2013-11-28 05:42:00,15.0,12.0,-100.00,SE,124,0.0,0.0,89,0.00,,,0.00,0.000000,,2013-11-28 11:42:00,
2013-11-28 05:52:00,15.0,12.0,-100.00,SE,124,0.0,0.0,89,0.00,,,0.00,0.000000,,2013-11-28 11:52:00,
2013-11-28 06:22:00,15.0,12.0,-100.00,ESE,123,0.0,0.0,89,0.00,,,0.00,0.000000,,2013-11-28 12:22:00,
2013-11-28 06:32:00,15.0,12.0,-100.00,ESE,123,0.0,0.0,89,0.00,,,0.00,0.000000,,2013-11-28 12:32:00,
2013-11-28 06:42:00,15.0,12.0,-100.00,ESE,123,0.0,0.0,89,0.00,,,0.00,0.000000,,2013-11-28 12:42:00,
2013-11-28 06:52:00,15.0,12.0,-100.00,ESE,123,0.0,0.0,89,0.00,,,0.00,0.000000,,2013-11-28 12:52:00,
2013-11-28 07:01:00,15.0,12.0,-100.00,ESE,123,0.0,0.0,89,0.00,,,0.00,0.000000,,2013-11-28 13:01:00,
2013-11-28 07:02:00,15.0,12.0,-100.00,NE,39,0.0,0.0,88,0.00,,,0.00,0.000000,,2013-11-28 13:02:00,
2013-11-28 07:22:00,15.0,12.0,-100.00,NE,39,0.0,0.0,88,0.00,,,0.00,0.000000,,2013-11-28 13:22:00,
2013-11-28 07:32:00,15.0,12.0,-100.00,NE,39,0.0,0.0,88,0.00,,,0.00,0.000000,,2013-11-28 13:32:00,
2013-11-28 07:42:00,15.0,12.0,-100.00,NE,39,0.0,0.0,88,0.00,,,0.00,0.000000,,2013-11-28 13:42:00,
2013-11-28 07:52:00,15.0,12.0,-100.00,NE,39,0.0,0.0,88,0.00,,,0.00,0.000000,,2013-11-28 13:52:00,
2013-11-28 08:02:00,15.0,12.0,-100.00,NE,40,0.0,0.0,88,0.00,,,0.00,2.000000,,2013-11-28 14:02:00,
2013-11-28 08:22:00,15.0,12.0,-100.00,NE,40,0.0,0.0,88,0.00,,,0.00,2.000000,,2013-11-28 14:22:00,
2013-11-28 08:32:00,15.0,12.0,-100.00,NE,40,0.0,0.0,88,0.00,,,0.00,2.000000,,2013-11-28 14:32:00,
2013-11-28 08:42:00,15.0,12.0,-100.00,NE,40,0.0,0.0,88,0.00,,,0.00,2.000000,,2013-11-28 14:42:00,
2013-11-28 08:52:00,15.0,12.0,-100.00,NE,40,0.0,0.0,88,0.00,,,0.00,2.000000,,2013-11-28 14:52:00,
2013-11-28 09:02:00,18.0,15.0,-100.00,WSW,245,1.0,2.0,86,0.00,,,-99.99,14.000000,,2013-11-28 15:02:00,
2013-11-28 09:22:00,18.0,15.0,-100.00,WSW,245,1.0,2.0,86,0.00,,,-99.99,14.000000,,2013-11-28 15:22:00,
2013-11-28 09:34:00,18.0,15.0,-100.00,WSW,245,1.0,2.0,86,0.00,,,-99.99,14.000000,,2013-11-28 15:34:00,
2013-11-28 09:44:00,18.0,15.0,-100.00,WSW,245,1.0,2.0,86,0.00,,,-99.99,14.000000,,2013-11-28 15:44:00,
2013-11-28 09:54:00,18.0,15.0,-100.00,WSW,245,1.0,2.0,86,0.00,,,-99.99,14.000000,,2013-11-28 15:54:00,
2013-11-28 10:02:00,20.0,14.0,-100.00,WNW,302,3.0,6.0,78,0.00,,,0.00,35.000000,,2013-11-28 16:02:00,
2013-11-28 10:23:00,20.0,14.0,-100.00,WNW,302,3.0,6.0,78,0.00,,,0.00,35.000000,,2013-11-28 16:23:00,
2013-11-28 10:33:00,20.0,14.0,-100.00,WNW,302,3.0,6.0,78,0.00,,,0.00,35.000000,,2013-11-28 16:33:00,
2013-11-28 10:43:00,20.0,14.0,-100.00,WNW,302,3.0,6.0,78,0.00,,,0.00,35.000000,,2013-11-28 16:43:00,
2013-11-28 10:54:00,20.0,14.0,-100.00,WNW,302,3.0,6.0,78,0.00,,,0.00,35.000000,,2013-11-28 16:54:00,
2013-11-28 11:02:00,23.0,15.0,-100.00,NW,309,5.0,8.0,71,0.00,,,0.00,71.000000,,2013-11-28 17:02:00,
2013-11-28 11:23:00,23.0,15.0,-100.00,NW,309,5.0,8.0,71,0.00,,,0.00,71.000000,,2013-11-28 17:23:00,
2013-11-28 11:33:00,23.0,15.0,-100.00,NW,309,5.0,8.0,71,0.00,,,0.00,71.000000,,2013-11-28 17:33:00,
2013-11-28 11:42:00,23.0,15.0,-100.00,NW,309,5.0,8.0,71,0.00,,,0.00,71.000000,,2013-11-28 17:42:00,
2013-11-28 11:52:00,23.0,15.0,-100.00,NW,309,5.0,8.0,71,0.00,,,0.00,71.000000,,2013-11-28 17:52:00,
2013-11-28 12:02:00,22.0,14.0,-100.00,NW,326,5.0,10.0,70,0.00,,,0.00,58.000000,,2013-11-28 18:02:00,
2013-11-28 12:22:00,22.0,14.0,-100.00,NW,326,5.0,10.0,70,0.00,,,0.00,58.000000,,2013-11-28 18:22:00,
2013-11-28 12:33:00,22.0,14.0,-100.00,NW,326,5.0,10.0,70,0.00,,,0.00,58.000000,,2013-11-28 18:33:00,
2013-11-28 12:42:00,22.0,14.0,-100.00,NW,326,5.0,10.0,70,0.00,,,0.00,58.000000,,2013-11-28 18:42:00,
2013-11-28 12:52:00,22.0,14.0,-100.00,NW,326,5.0,10.0,70,0.00,,,0.00,58.000000,,2013-11-28 18:52:00,
2013-11-28 13:22:00,22.0,14.0,-100.00,WNW,296,4.0,9.0,71,0.00,,,-99.99,36.000000,,2013-11-28 19:22:00,
2013-11-28 13:32:00,22.0,14.0,-100.00,WNW,296,4.0,9.0,71,0.00,,,-99.99,36.000000,,2013-11-28 19:32:00,
2013-11-28 13:42:00,22.0,14.0,-100.00,WNW,296,4.0,9.0,71,0.00,,,-99.99,36.000000,,2013-11-28 19:42:00,
2013-11-28 13:52:00,22.0,14.0,-100.00,WNW,296,4.0,9.0,71,0.00,,,-99.99,36.000000,,2013-11-28 19:52:00,
2013-11-28 14:01:00,22.0,14.0,-100.00,WNW,296,4.0,9.0,71,0.00,,,-99.99,36.000000,,2013-11-28 20:01:00,
2013-11-28 14:02:00,23.0,14.0,-100.00,NW,316,5.0,11.0,69,0.00,,,0.00,41.000000,,2013-11-28 20:02:00,
2013-11-28 14:22:00,23.0,14.0,-100.00,NW,316,5.0,11.0,69,0.00,,,0.00,41.000000,,2013-11-28 20:22:00,
2013-11-28 14:32:00,23.0,14.0,-100.00,NW,316,5.0,11.0,69,0.00,,,0.00,41.000000,,2013-11-28 20:32:00,
2013-11-28 14:42:00,23.0,14.0,-100.00,NW,316,5.0,11.0,69,0.00,,,0.00,41.000000,,2013-11-28 20:42:00,
2013-11-28 14:52:00,23.0,14.0,-100.00,NW,316,5.0,11.0,69,0.00,,,0.00,41.000000,,2013-11-28 20:52:00,
2013-11-28 15:02:00,22.0,11.0,-100.00,NW,323,4.0,10.0,63,0.00,,,0.00,40.000000,,2013-11-28 21:02:00,
2013-11-28 15:22:00,22.0,11.0,-100.00,NW,323,4.0,10.0,63,0.00,,,0.00,40.000000,,2013-11-28 21:22:00,
2013-11-28 15:33:00,22.0,11.0,-100.00,NW,323,4.0,10.0,63,0.00,,,0.00,40.000000,,2013-11-28 21:33:00,
2013-11-28 15:43:00,22.0,11.0,-100.00,NW,323,4.0,10.0,63,0.00,,,0.00,40.000000,,2013-11-28 21:43:00,
2013-11-28 15:53:00,22.0,11.0,-100.00,NW,323,4.0,10.0,63,0.00,,,0.00,40.000000,,2013-11-28 21:53:00,
2013-11-28 16:02:00,20.0,14.0,-100.00,WNW,296,3.0,11.0,77,0.00,,,0.00,13.000000,,2013-11-28 22:02:00,
2013-11-28 16:23:00,20.0,14.0,-100.00,WNW,296,3.0,11.0,77,0.00,,,0.00,13.000000,,2013-11-28 22:23:00,
2013-11-28 16:33:00,20.0,14.0,-100.00,WNW,296,3.0,11.0,77,0.00,,,0.00,13.000000,,2013-11-28 22:33:00,
2013-11-28 16:42:00,20.0,14.0,-100.00,WNW,296,3.0,11.0,77,0.00,,,0.00,13.000000,,2013-11-28 22:42:00,
2013-11-28 16:53:00,20.0,14.0,-100.00,WNW,296,3.0,11.0,77,0.00,,,0.00,13.000000,,2013-11-28 22:53:00,
2013-11-28 17:02:00,17.0,12.0,-100.00,WNW,291,2.0,8.0,81,0.00,,,0.00,2.000000,,2013-11-28 23:02:00,
2013-11-28 17:22:00,17.0,12.0,-100.00,WNW,291,2.0,8.0,81,0.00,,,0.00,2.000000,,2013-11-28 23:22:00,
2013-11-28 17:33:00,17.0,12.0,-100.00,WNW,291,2.0,8.0,81,0.00,,,0.00,2.000000,,2013-11-28 23:33:00,
2013-11-28 17:42:00,17.0,12.0,-100.00,WNW,291,2.0,8.0,81,0.00,,,0.00,2.000000,,2013-11-28 23:42:00,
2013-11-28 17:52:00,17.0,12.0,-100.00,WNW,291,2.0,8.0,81,0.00,,,0.00,2.000000,,2013-11-28 23:52:00,
2013-11-28 18:22:00,17.0,12.0,-100.00,WNW,283,3.0,9.0,82,0.00,,,0.00,0.000000,,2013-11-29 00:22:00,
2013-11-28 18:32:00,17.0,12.0,-100.00,WNW,283,3.0,9.0,82,0.00,,,0.00,0.000000,,2013-11-29 00:32:00,
2013-11-28 18:42:00,17.0,12.0,-100.00,WNW,283,3.0,9.0,82,0.00,,,0.00,0.000000,,2013-11-29 00:42:00,
2013-11-28 18:52:00,17.0,12.0,-100.00,WNW,283,3.0,9.0,82,0.00,,,0.00,0.000000,,2013-11-29 00:52:00,
2013-11-28 19:01:00,17.0,12.0,-100.00,WNW,283,3.0,9.0,82,0.00,,,0.00,0.000000,,2013-11-29 01:01:00,
2013-11-28 19:02:00,16.0,12.0,-100.00,WNW,286,2.0,8.0,85,0.00,,,0.00,0.000000,,2013-11-29 01:02:00,
2013-11-28 19:22:00,16.0,12.0,-100.00,WNW,286,2.0,8.0,85,0.00,,,0.00,0.000000,,2013-11-29 01:22:00,
2013-11-28 19:32:00,16.0,12.0,-100.00,WNW,286,2.0,8.0,85,0.00,,,0.00,0.000000,,2013-11-29 01:32:00,
2013-11-28 19:42:00,16.0,12.0,-100.00,WNW,286,2.0,8.0,85,0.00,,,0.00,0.000000,,2013-11-29 01:42:00,
2013-11-28 19:52:00,16.0,12.0,-100.00,WNW,286,2.0,8.0,85,0.00,,,0.00,0.000000,,2013-11-29 01:52:00,
2013-11-28 20:22:00,14.0,11.0,-100.00,West,278,2.0,7.0,87,0.00,,,0.00,0.000000,,2013-11-29 02:22:00,
2013-11-28 20:32:00,14.0,11.0,-100.00,West,278,2.0,7.0,87,0.00,,,0.00,0.000000,,2013-11-29 02:32:00,
2013-11-28 20:42:00,14.0,11.0,-100.00,West,278,2.0,7.0,87,0.00,,,0.00,0.000000,,2013-11-29 02:42:00,
2013-11-28 20:52:00,14.0,11.0,-100.00,West,278,2.0,7.0,87,0.00,,,0.00,0.000000,,2013-11-29 02:52:00,
2013-11-28 21:01:00,14.0,11.0,-100.00,West,278,2.0,7.0,87,0.00,,,0.00,0.000000,,2013-11-29 03:01:00,
2013-11-28 21:02:00,13.0,10.0,-100.00,NW,305,2.0,7.0,88,0.00,,,0.00,0.000000,,2013-11-29 03:02:00,
2013-11-28 21:22:00,13.0,10.0,-100.00,NW,305,2.0,7.0,88,0.00,,,0.00,0.000000,,2013-11-29 03:22:00,
2013-11-28 21:33:00,13.0,10.0,-100.00,NW,305,2.0,7.0,88,0.00,,,0.00,0.000000,,2013-11-29 03:33:00,
2013-11-28 21:43:00,13.0,10.0,-100.00,NW,305,2.0,7.0,88,0.00,,,0.00,0.000000,,2013-11-29 03:43:00,
2013-11-28 21:54:00,13.0,10.0,-100.00,NW,305,2.0,7.0,88,0.00,,,0.00,0.000000,,2013-11-29 03:54:00,
2013-11-28 22:02:00,14.0,11.0,-100.00,West,273,2.0,5.0,87,0.00,,,0.00,0.000000,,2013-11-29 04:02:00,
2013-11-28 22:23:00,14.0,11.0,-100.00,West,273,2.0,5.0,87,0.00,,,0.00,0.000000,,2013-11-29 04:23:00,
2013-11-28 22:33:00,14.0,11.0,-100.00,West,273,2.0,5.0,87,0.00,,,0.00,0.000000,,2013-11-29 04:33:00,
2013-11-28 22:43:00,14.0,11.0,-100.00,West,273,2.0,5.0,87,0.00,,,0.00,0.000000,,2013-11-29 04:43:00,
2013-11-28 22:52:00,14.0,11.0,-100.00,West,273,2.0,5.0,87,0.00,,,0.00,0.000000,,2013-11-29 04:52:00,
2013-11-28 23:02:00,14.0,11.0,-100.00,WNW,285,3.0,5.0,87,0.00,,,0.00,0.000000,,2013-11-29 05:02:00,
2013-11-28 23:22:00,14.0,11.0,-100.00,WNW,285,3.0,5.0,87,0.00,,,0.00,0.000000,,2013-11-29 05:22:00,
2013-11-28 23:33:00,14.0,11.0,-100.00,WNW,285,3.0,5.0,87,0.00,,,0.00,0.000000,,2013-11-29 05:33:00,
2013-11-28 23:43:00,14.0,11.0,-100.00,WNW,285,3.0,5.0,87,0.00,,,0.00,0.000000,,2013-11-29 05:43:00,
2013-11-28 23:53:00,14.0,11.0,-100.00,WNW,285,3.0,5.0,87,0.00,,,0.00,0.000000,,2013-11-29 05:53:00,